Location: Axtheid
(49.6213°N, 11.8205°E)
Time: 21:08:47
(UTC+00:00)

Meteor 2-10 Rocket - Pass Details

Date: 24 January 2021
Orbit: 733 x 885 km, 81.2° (Epoch: 01 March)

Event Time Altitude Azimuth Distance (km) Brightness Sun altitude
Rises 16:47:36 0° 347° (NNW) 3,398 6.8 -8.6°
Reaches altitude 10° 16:50:04 10° 348° (NNW) 2,437 6.0 -9.0°
Maximum altitude 16:55:35 88° 76° (ENE) 806 3.6 -9.8°
Drops below altitude 10° 17:00:49 10° 169° (S) 2,317 6.1 -10.6°
Sets 17:03:07 0° 169° (S) 3,219 6.8 -11.0°
